Location: Leipzig
(51.3397°N, 12.3731°E)
Time: 14:20:00
(UTC+01:00)

ACS3 Solar Sail - Visible Passes

Search period start: 08 December 2025 00:00
Search period end: 18 December 2025 00:00
Orbit: 888 x 1003 km, 97.3° (Epoch: 07 December)

Date Brightness Start Highest point End Pass type
(mag) Time Alt. Az. Time Alt. Az. Time Alt. Az.
08 Dec 3.9 04:39:44 10° N 04:40:26 13° N 04:40:26 13° N visible
09 Dec 4.4 03:12:27 10° NNE 03:12:35 11° NNE 03:12:35 11° NNE visible
09 Dec 3.9 04:56:01 10° N 04:56:36 12° N 04:56:36 12° N visible
10 Dec 4.3 03:28:25 10° NNE 03:28:40 11° NNE 03:28:40 11° NNE visible
10 Dec 3.9 05:12:16 10° N 05:12:40 11° NNW 05:12:40 11° NNW visible
11 Dec 4.2 03:44:20 10° N 03:44:40 12° N 03:44:40 12° N visible
11 Dec 3.9 05:28:33 10° NNW 05:28:40 10° NNW 05:28:40 10° NNW visible
12 Dec 4.1 04:00:14 10° N 04:00:36 12° N 04:00:36 12° N visible
13 Dec 4.1 04:16:05 10° N 04:16:27 12° N 04:16:27 12° N visible
14 Dec 4.0 04:31:53 10° N 04:32:12 11° N 04:32:12 11° N visible
15 Dec 4.0 04:47:39 10° N 04:47:54 11° N 04:47:54 11° N visible
16 Dec 4.0 05:03:25 10° N 05:03:30 10° N 05:03:30 10° N visible
